COSMOS 2526

Last updated on Wed Nov 20 2024 00:02:42 GMT+0000 (Coordinated Universal Time)

1 43432U 18037A 24324.51550970 -.00000343 00000+0 00000+0 0 9991 2 43432 0.0406 103.3297 0000590 163.8861 105.4867 1.00269195 24202
UTC large
Height (km)
Speed (km/s)
/
Latitude / Longitude
Inclination (degrees)
Orbital Period (minutes)
Azimuth
Elevation
Range (km)
Doppler Factor

Next 0 passes for location: London (51.5072 / 0.1276)

Sorry there are no passes over London.